| time (UTC) | temp C | wind direction | speed KPH | gust KPH | rain 1hr cm | rain 24hr cm | rain mn cm | humidity % | barometer mb |
| 20260508064535 | 11 | 233 | 0.0 | 0.0 | 0.00 | 0.74 | 0.00 | 98 | 1014.5 |
| 20260508063531 | 11 | 233 | 0.0 | 0.0 | 0.00 | 0.74 | 0.00 | 98 | 1014.5 |
| 20260508062526 | 11 | 0.0 | 0.0 | 0.00 | 0.74 | 0.00 | 98 | 1014.4 | |
| 20260508061521 | 11 | 0.0 | 0.0 | 0.00 | 0.74 | 0.00 | 98 | 1014.4 | |
| 20260508060517 | 11 | 0.0 | 0.0 | 0.00 | 0.74 | 0.00 | 98 | 1014.3 | |
| 20260508055533 | 11 | 0.0 | 0.0 | 0.00 | 0.74 | 0.00 | 98 | 1014.5 | |
| 20260508054528 | 11 | 0.0 | 0.0 | 0.00 | 0.74 | 0.00 | 98 | 1014.5 | |
| 20260508053524 | 11 | 0.0 | 0.0 | 0.00 | 0.74 | 0.00 | 98 | 1014.4 | |
| 20260508052520 | 11 | 0.0 | 0.0 | 0.00 | 0.74 | 0.00 | 98 | 1014.4 | |
| 20260508051536 | 11 | 0.0 | 0.0 | 0.00 | 0.74 | 0.00 | 98 | 1014.3 | |
| 20260508050531 | 10 | 0.0 | 0.0 | 0.00 | 0.74 | 0.00 | 98 | 1014.2 | |
| 20260508045607 | 10 | 0.0 | 0.0 | 0.00 | 0.74 | 0.00 | 98 | 1014.3 | |
| 20260508044522 | 11 | 0.0 | 0.0 | 0.00 | 0.76 | 0.00 | 98 | 1014.1 | |
| 20260508043538 | 11 | 233 | 0.0 | 0.0 | 0.00 | 0.99 | 0.00 | 98 | 1014.0 |
| 20260508042534 | 11 | 0.0 | 0.0 | 0.00 | 1.07 | 0.00 | 98 | 1013.9 | |
| 20260508041529 | 11 | 233 | 0.0 | 1.6 | 0.00 | 1.14 | 0.00 | 98 | 1014.1 |
| 20260508040525 | 11 | 233 | 0.0 | 0.0 | 0.00 | 1.17 | 0.00 | 98 | 1014.1 |
| 20260508035519 | 11 | 233 | 0.0 | 0.0 | 0.00 | 1.32 | 1.24 | 98 | 1013.9 |
| 20260508034534 | 11 | 233 | 0.0 | 1.6 | 0.00 | 1.35 | 1.24 | 97 | 1014.0 |
| 20260508033530 | 11 | 0.0 | 0.0 | 0.00 | 1.35 | 1.24 | 97 | 1013.7 | |
| 20260508032525 | 11 | 0.0 | 0.0 | 0.00 | 1.35 | 1.24 | 97 | 1013.5 | |
| 20260508031520 | 11 | 0.0 | 0.0 | 0.00 | 1.35 | 1.24 | 97 | 1013.5 | |
| 20260508030535 | 12 | 0.0 | 0.0 | 0.00 | 1.37 | 1.24 | 97 | 1013.6 | |
| 20260508025530 | 12 | 0.0 | 0.0 | 0.00 | 1.37 | 1.24 | 97 | 1013.4 | |
| 20260508024546 | 12 | 0.0 | 0.0 | 0.00 | 1.37 | 1.24 | 97 | 1013.5 | |
| 20260508023521 | 12 | 0.0 | 0.0 | 0.00 | 1.37 | 1.24 | 97 | 1013.4 | |
| 20260508022516 | 12 | 0.0 | 0.0 | 0.00 | 1.40 | 1.24 | 97 | 1013.4 | |
| 20260508021531 | 12 | 233 | 0.0 | 0.0 | 0.00 | 1.40 | 1.24 | 97 | 1013.2 |
| 20260508020526 | 12 | 0.0 | 0.0 | 0.00 | 1.40 | 1.24 | 97 | 1013.1 | |
| 20260508015522 | 12 | 0.0 | 0.0 | 0.00 | 1.40 | 1.24 | 97 | 1012.9 | |
| 20260508014517 | 12 | 0.0 | 0.0 | 0.00 | 1.40 | 1.24 | 97 | 1012.7 | |
| 20260508013532 | 12 | 233 | 0.0 | 0.0 | 0.00 | 1.40 | 1.24 | 97 | 1012.8 |
| 20260508012528 | 12 | 0.0 | 0.0 | 0.00 | 1.40 | 1.24 | 96 | 1012.4 | |
| 20260508011523 | 12 | 233 | 0.0 | 0.0 | 0.00 | 1.40 | 1.24 | 96 | 1012.0 |
| 20260508010539 | 12 | 233 | 0.0 | 0.0 | 0.00 | 1.40 | 1.24 | 96 | 1011.8 |
| 20260508005535 | 12 | 0.0 | 0.0 | 0.00 | 1.40 | 1.24 | 96 | 1011.9 | |
| 20260508004531 | 12 | 0.0 | 0.0 | 0.00 | 1.40 | 1.24 | 96 | 1012.0 | |
| 20260508003527 | 12 | 0.0 | 0.0 | 0.00 | 1.40 | 1.24 | 96 | 1012.0 | |
| 20260508002523 | 12 | 233 | 0.0 | 0.0 | 0.00 | 1.40 | 1.24 | 96 | 1011.9 |
| 20260508001518 | 12 | 233 | 0.0 | 1.6 | 0.00 | 1.40 | 1.24 | 96 | 1011.8 |
| 20260508000534 | 13 | 0.0 | 0.0 | 0.00 | 1.40 | 1.24 | 95 | 1011.7 | |
| 20260507235529 | 12 | 233 | 0.0 | 0.0 | 0.00 | 1.40 | 1.24 | 95 | 1011.8 |
| 20260507234525 | 13 | 0.0 | 0.0 | 0.00 | 1.40 | 1.24 | 95 | 1011.4 | |
| 20260507233521 | 13 | 210 | 0.0 | 1.6 | 0.00 | 1.40 | 1.24 | 95 | 1011.3 |
| 20260507232517 | 13 | 239 | 0.0 | 1.6 | 0.00 | 1.40 | 1.24 | 95 | 1011.0 |
| 20260507231532 | 13 | 326 | 0.0 | 1.6 | 0.00 | 1.40 | 1.24 | 95 | 1010.5 |
| 20260507230528 | 13 | 269 | 0.0 | 1.6 | 0.00 | 1.40 | 1.24 | 96 | 1010.6 |
| 20260507225524 | 13 | 271 | 0.0 | 1.6 | 0.00 | 1.40 | 1.24 | 95 | 1010.6 |
| 20260507224519 | 13 | 163 | 1.6 | 3.2 | 0.00 | 1.40 | 1.24 | 95 | 1010.9 |
| 20260507223535 | 13 | 225 | 0.0 | 3.2 | 0.00 | 1.40 | 1.24 | 95 | 1010.5 |
| 20260507222531 | 13 | 237 | 0.0 | 1.6 | 0.03 | 1.40 | 1.24 | 95 | 1010.5 |
| 20260507221527 | 13 | 237 | 0.0 | 3.2 | 0.03 | 1.40 | 1.24 | 94 | 1010.3 |
| 20260507220522 | 13 | 254 | 0.0 | 1.6 | 0.03 | 1.40 | 1.24 | 95 | 1010.3 |
| 20260507215539 | 13 | 251 | 0.0 | 0.0 | 0.03 | 1.40 | 1.24 | 95 | 1010.4 |
| 20260507214534 | 13 | 278 | 1.6 | 3.2 | 0.03 | 1.40 | 1.24 | 95 | 1010.6 |
| 20260507213529 | 13 | 277 | 1.6 | 3.2 | 0.03 | 1.40 | 1.24 | 94 | 1010.4 |
| 20260507212525 | 13 | 291 | 1.6 | 6.4 | 0.00 | 1.37 | 1.22 | 93 | 1010.2 |
| 20260507211521 | 13 | 222 | 0.0 | 3.2 | 0.00 | 1.37 | 1.22 | 94 | 1010.3 |
| 20260507210516 | 13 | 303 | 1.6 | 4.8 | 0.00 | 1.37 | 1.22 | 92 | 1010.3 |
| 20260507205552 | 13 | 315 | 0.0 | 3.2 | 0.00 | 1.37 | 1.22 | 94 | 1010.1 |
| 20260507204528 | 14 | 305 | 1.6 | 4.8 | 0.00 | 1.37 | 1.22 | 95 | 1009.9 |
| 20260507203523 | 14 | 4 | 1.6 | 3.2 | 0.00 | 1.37 | 1.22 | 95 | 1009.8 |
| 20260507202519 | 14 | 347 | 0.0 | 1.6 | 0.00 | 1.37 | 1.22 | 95 | 1009.9 |
| 20260507201535 | 14 | 314 | 0.0 | 3.2 | 0.00 | 1.37 | 1.22 | 95 | 1009.6 |
| 20260507200551 | 14 | 238 | 0.0 | 1.6 | 0.00 | 1.37 | 1.22 | 94 | 1009.8 |
| 20260507195546 | 15 | 266 | 1.6 | 6.4 | 0.00 | 1.37 | 1.22 | 94 | 1009.4 |
| 20260507194522 | 15 | 275 | 0.0 | 1.6 | 0.00 | 1.37 | 1.22 | 94 | 1009.7 |
| 20260507193517 | 15 | 40 | 0.0 | 1.6 | 0.00 | 1.37 | 1.22 | 95 | 1009.9 |
| 20260507192533 | 15 | 38 | 0.0 | 1.6 | 0.00 | 1.37 | 1.22 | 95 | 1009.7 |
| 20260507191528 | 15 | 291 | 1.6 | 4.8 | 0.00 | 1.37 | 1.22 | 94 | 1009.8 |
| 20260507190523 | 15 | 18 | 1.6 | 3.2 | 0.00 | 1.37 | 1.22 | 95 | 1010.0 |
| 20260507185538 | 15 | 344 | 1.6 | 1.6 | 0.00 | 1.45 | 1.22 | 95 | 1010.1 |
| 20260507184554 | 14 | 105 | 1.6 | 3.2 | 0.03 | 1.52 | 1.22 | 95 | 1009.8 |
| 20260507183530 | 15 | 294 | 1.6 | 9.7 | 0.03 | 1.60 | 1.22 | 96 | 1009.3 |
| 20260507182525 | 14 | 31 | 1.6 | 4.8 | 0.03 | 1.63 | 1.22 | 95 | 1009.5 |
| 20260507181541 | 15 | 302 | 1.6 | 3.2 | 0.05 | 1.68 | 1.22 | 95 | 1010.0 |
| 20260507180517 | 15 | 268 | 1.6 | 3.2 | 0.05 | 1.68 | 1.22 | 94 | 1009.5 |
| 20260507175533 | 16 | 12 | 1.6 | 6.4 | 0.05 | 1.68 | 1.22 | 93 | 1009.4 |
| 20260507174528 | 19 | 7 | 1.6 | 6.4 | 0.03 | 1.65 | 1.19 | 96 | 1009.1 |
| 20260507173524 | 19 | 100 | 1.6 | 3.2 | 0.03 | 1.65 | 1.19 | 97 | 1008.7 |
| 20260507172520 | 19 | 102 | 0.0 | 1.6 | 0.03 | 1.65 | 1.19 | 95 | 1009.9 |
| 20260507171535 | 19 | 112 | 0.0 | 1.6 | 0.03 | 1.63 | 1.17 | 95 | 1009.1 |
| 20260507170550 | 19 | 0.0 | 0.0 | 0.03 | 1.63 | 1.17 | 95 | 1008.8 | |
| 20260507165526 | 19 | 112 | 0.0 | 1.6 | 0.05 | 1.63 | 1.17 | 95 | 1008.7 |
| 20260507164521 | 19 | 113 | 0.0 | 1.6 | 0.08 | 1.63 | 1.17 | 95 | 1008.6 |
| 20260507163516 | 19 | 113 | 0.0 | 0.0 | 0.10 | 1.63 | 1.17 | 96 | 1008.6 |
| 20260507162532 | 19 | 0.0 | 0.0 | 0.10 | 1.63 | 1.17 | 96 | 1009.0 | |
| 20260507161528 | 19 | 113 | 0.0 | 1.6 | 0.08 | 1.60 | 1.14 | 96 | 1009.3 |
| 20260507160524 | 19 | 108 | 1.6 | 3.2 | 0.08 | 1.60 | 1.14 | 96 | 1010.1 |
| 20260507155519 | 20 | 99 | 0.0 | 1.6 | 0.08 | 1.57 | 1.12 | 97 | 1010.1 |
| 20260507154536 | 20 | 41 | 0.0 | 1.6 | 0.05 | 1.55 | 1.09 | 97 | 1010.2 |
| 20260507153531 | 20 | 41 | 0.0 | 1.6 | 0.05 | 1.52 | 1.07 | 97 | 1010.2 |
| 20260507152527 | 20 | 41 | 0.0 | 0.0 | 0.05 | 1.52 | 1.07 | 98 | 1009.7 |
| 20260507151522 | 19 | 0.0 | 0.0 | 0.05 | 1.52 | 1.07 | 98 | 1009.5 | |
| 20260507150558 | 19 | 0.0 | 0.0 | 0.08 | 1.52 | 1.07 | 98 | 1009.5 | |
| 20260507145534 | 20 | 0.0 | 0.0 | 0.10 | 1.50 | 1.04 | 98 | 1009.9 | |
| 20260507144529 | 19 | 40 | 0.0 | 0.0 | 0.13 | 1.50 | 1.04 | 98 | 1009.9 |
| 20260507143525 | 19 | 41 | 1.6 | 1.6 | 0.10 | 1.47 | 1.02 | 98 | 1009.4 |
| 20260507142522 | 19 | 41 | 0.0 | 1.6 | 0.15 | 1.47 | 1.02 | 98 | 1009.6 |
| 20260507141537 | 19 | 40 | 0.0 | 0.0 | 0.18 | 1.47 | 1.02 | 98 | 1009.9 |
| 20260507140552 | 19 | 0.0 | 0.0 | 0.18 | 1.45 | 0.99 | 98 | 1009.7 | |
| 20260507135629 | 19 | 41 | 0.0 | 0.0 | 0.13 | 1.40 | 0.94 | 98 | 1009.8 |
| 20260507134524 | 18 | 41 | 0.0 | 0.0 | 0.10 | 1.37 | 0.91 | 98 | 1010.0 |
| 20260507133519 | 18 | 41 | 0.0 | 1.6 | 0.13 | 1.37 | 0.91 | 98 | 1010.4 |
| 20260507132535 | 18 | 41 | 0.0 | 1.6 | 0.08 | 1.32 | 0.86 | 98 | 1010.7 |
| 20260507131531 | 18 | 0.0 | 0.0 | 0.05 | 1.30 | 0.84 | 98 | 1010.7 | |
| 20260507130527 | 18 | 0.0 | 0.0 | 0.03 | 1.27 | 0.81 | 98 | 1010.5 | |
| 20260507125522 | 18 | 0.0 | 0.0 | 0.03 | 1.27 | 0.81 | 98 | 1010.4 | |
| 20260507124518 | 18 | 41 | 0.0 | 1.6 | 0.03 | 1.27 | 0.81 | 98 | 1010.4 |
| 20260507123534 | 18 | 41 | 0.0 | 0.0 | 0.00 | 1.24 | 0.79 | 98 | 1010.5 |
| 20260507122530 | 18 | 0.0 | 0.0 | 0.00 | 1.24 | 0.79 | 98 | 1010.5 | |
| 20260507121525 | 18 | 0.0 | 0.0 | 0.00 | 1.24 | 0.79 | 98 | 1010.3 | |
| 20260507120541 | 18 | 0.0 | 0.0 | 0.00 | 1.24 | 0.79 | 98 | 1010.3 | |
| 20260507115517 | 18 | 0.0 | 0.0 | 0.00 | 1.24 | 0.79 | 98 | 1010.3 | |
| 20260507114533 | 18 | 0.0 | 0.0 | 0.00 | 1.24 | 0.79 | 98 | 1010.6 | |
| 20260507113528 | 18 | 0.0 | 0.0 | 0.00 | 1.24 | 0.79 | 98 | 1010.4 | |
| 20260507112524 | 18 | 0.0 | 0.0 | 0.00 | 1.24 | 0.79 | 98 | 1010.7 | |
| 20260507111519 | 18 | 0.0 | 0.0 | 0.00 | 1.24 | 0.79 | 98 | 1010.8 | |
| 20260507110534 | 18 | 0.0 | 0.0 | 0.00 | 1.24 | 0.79 | 98 | 1010.7 | |
| 20260507105530 | 18 | 0.0 | 0.0 | 0.03 | 1.24 | 0.79 | 98 | 1010.7 | |
| 20260507104606 | 17 | 0.0 | 0.0 | 0.03 | 1.24 | 0.79 | 98 | 1010.6 | |
| 20260507103541 | 17 | 0.0 | 0.0 | 0.03 | 1.24 | 0.79 | 98 | 1010.2 | |
| 20260507102516 | 17 | 0.0 | 0.0 | 0.03 | 1.24 | 0.79 | 98 | 1010.3 | |
| 20260507101531 | 17 | 0.0 | 0.0 | 0.03 | 1.24 | 0.79 | 98 | 1010.4 | |
| 20260507100527 | 17 | 0.0 | 0.0 | 0.05 | 1.24 | 0.79 | 98 | 1010.3 | |
| 20260507095521 | 17 | 34 | 0.0 | 0.0 | 0.03 | 1.22 | 0.76 | 98 | 1010.3 |
| 20260507094517 | 17 | 36 | 0.0 | 1.6 | 0.03 | 1.22 | 0.76 | 98 | 1010.2 |
| 20260507093532 | 17 | 35 | 0.0 | 0.0 | 0.03 | 1.22 | 0.76 | 98 | 1010.2 |
| 20260507092527 | 17 | 0.0 | 0.0 | 0.03 | 1.22 | 0.76 | 98 | 1010.6 | |
| 20260507091522 | 17 | 0.0 | 0.0 | 0.03 | 1.22 | 0.76 | 98 | 1010.5 | |
| 20260507090518 | 17 | 0.0 | 0.0 | 0.03 | 1.19 | 0.74 | 98 | 1010.5 | |
| 20260507085534 | 17 | 35 | 0.0 | 1.6 | 0.03 | 1.19 | 0.74 | 98 | 1010.4 |
| 20260507084530 | 17 | 0.0 | 0.0 | 0.03 | 1.19 | 0.74 | 98 | 1010.8 | |
| 20260507083525 | 17 | 36 | 0.0 | 0.0 | 0.03 | 1.19 | 0.74 | 98 | 1010.6 |
| 20260507082541 | 17 | 35 | 0.0 | 0.0 | 0.08 | 1.19 | 0.74 | 98 | 1010.9 |
| 20260507081515 | 17 | 0.0 | 0.0 | 0.20 | 1.19 | 0.74 | 98 | 1011.1 | |
| 20260507080531 | 17 | 0.0 | 0.0 | 0.18 | 1.17 | 0.71 | 98 | 1011.4 | |
| 20260507075526 | 17 | 0.0 | 0.0 | 0.18 | 1.17 | 0.71 | 97 | 1011.3 | |
| 20260507074521 | 17 | 35 | 0.0 | 0.0 | 0.20 | 1.17 | 0.71 | 97 | 1010.8 |
| 20260507073517 | 17 | 0.0 | 0.0 | 0.20 | 1.17 | 0.71 | 97 | 1010.6 | |
| 20260507072533 | 17 | 35 | 0.0 | 1.6 | 0.15 | 1.12 | 0.66 | 97 | 1011.3 |
| 20260507071529 | 17 | 30 | 0.0 | 0.0 | 0.03 | 0.99 | 0.53 | 97 | 1011.8 |
| 20260507070524 | 17 | 0.0 | 0.0 | 0.03 | 0.99 | 0.53 | 97 | 1011.9 | |
| 20260507065520 | 17 | 0.0 | 0.0 | 0.03 | 0.99 | 0.53 | 97 | 1011.8 |